Regional Weather Roundup
Issued by NWS Binghamton, NY

Home | Current Version | Previous Version | Text Only | Print | Product List | Glossary On
Versions: 1 2 3 4 5 6 7 8 9 10 11 12 13 14 15 16 17 18 19 20 21 22 23 24 25 26 27 28 29 30 31 32 33 34 35 36 37 38 39 40 41 42 43 44 45 46 47 48 49 50
000
ASUS41 KBGM 271310
RWRBGM

REGIONAL WEATHER ROUNDUP
NATIONAL WEATHER SERVICE BINGHAMTON NY
900 AM EDT MON MAR 27 2017

Note: "fair" indicates few or no clouds below 12,000 feet with no
significant weather and/or obstructions to visibility.

* = Station(s) that does not report precipitation, such as rain,
snow, etc, also no thunder or fog.

NYZ009-015>018-022>025-036-037-044>046-055>057-062-271400
...Central New York...

CITY           SKY/WX    TMP DP  RH WIND       PRES   REMARKS
Binghamton     FOG       37  37 100 S8        29.99F VSB 1/2 WCI  31
Cortland       CLOUDY    41  41 100 S3        30.00S
Dansville      CLOUDY    48  42  80 SE12      29.94F
Elmira         CLOUDY    43  39  86 CALM      30.01R
Seneca Falls   CLOUDY    45  43  93 S16       29.97F
Ithaca         CLOUDY    42  39  89 S9        30.00S
Hamilton       CLOUDY    37  34  87 S8        30.00F WCI  31
Monticello     CLOUDY    32  32 100 E5        30.07F WCI  27
Norwich        CLOUDY    36  36 100 SE3       30.03S
Oneonta        CLOUDY    39  39 100 SW6       30.00  WCI  35
Penn Yan       MOSUNNY   45  38  76 S20G26    29.96S
Rome           CLOUDY    36  36 100 SE6       30.04S WCI  31
Sidney         CLOUDY    37  37 100 CALM      30.03S
Syracuse       CLOUDY    39  38  96 NE6       29.98S WCI  35
$$

PAZ038>040-043-044-047-048-072-271400
...Northeast Pennsylvania...

CITY           SKY/WX    TMP DP  RH WIND       PRES   REMARKS
Hazleton       FOG       37  37 100 CALM      30.07F VSB 1/2
Scranton       CLOUDY    42  40  92 CALM      30.05S
$$
&&
KEY
WCI = Wind Chill Index
VSB = Visibility
HX  = Heat Index
$$



USA.gov is the U.S. government's official web portal to all federal, state and local government web resources and services.